Terug naar catalogus

IRIDIUM 33 DEB

ActiefPO
NORAD 35616·DEBRIS·🇺🇸 United States

Gelanceerd Sep 14, 1997 vanaf Baikonur Cosmodrome

Loading…

Volgende Passages (komende 24 uur)

TLE

VersSource: Space-Track

Epoch: Sep 14, 2026, 07:35 UTC

1 35616U 97051QN  26257.31648289  .00009403  00000-0  10041-2 0  9990
2 35616  86.3526 219.1366 0004887 312.2310  47.8500 14.88699812916668

Volg IRIDIUM 33 DEB in realtime met AllMySat

Download on the App Store